Change the Weather History Date:

Monday, February 10, 2014

  Actual Average (KCLE) Record (KCLE)
Temperature  
Mean Temperature 12 °F 30 °F  
Max Temperature 21 °F 36 °F 66 °F (1932)
Min Temperature 3 °F 23 °F -16 °F (1899)
Degree Days  
Heating Degree Days 53 35  
Month to date heating degree days 359  
Since 1 July heating degree days 3611  
Cooling Degree Days 0 0  
Month to date cooling degree days 0  
Year to date cooling degree days 0  
Moisture  
Dew Point 6 °F    
Average Humidity 72    
Maximum Humidity 88    
Minimum Humidity 60    
Precipitation  
Precipitation 0.00 in 0.08 in 1.70 in (1959)
Month to date precipitation 0.80  
Year to date precipitation 3.52  
Snow  
Snow 0.00 in 0.50 in - ()
Month to date snowfall 5.5  
Since 1 July snowfall 42.8  
Snow Depth -    
Sea Level Pressure  
Sea Level Pressure 30.28 in    
Wind  
Wind Speed 8 mph (WSW)    
Max Wind Speed 12 mph    
Max Gust Speed -    
Visibility 7 miles    
Events Snow    
T = Trace of Precipitation, MM = Missing Value Source: NWS Daily Summary

Daily Weather History Graph

Daily Weather History Graph

Search for Another Location

Airport or City:

Trip Planner

Search our weather history database for the weather conditions in past years. The results will help you decide how hot, cold, wet, or windy it might be!

Date:

Astronomy

Feb. 10, 2014 Rise Set
Actual Time 7:30 AM EST 5:56 PM EST
Civil Twilight 7:01 AM EST 6:25 PM EST
Nautical Twilight 6:28 AM EST 6:57 PM EST
Astronomical Twilight 5:56 AM EST 7:29 PM EST
Moon 2:23 PM EST (2/10) 4:23 AM EST (2/10)
Length of Visible Light 11h 23m
Length of Day
10h 26m
Waxing Gibbous, 84% of the Moon is Illuminated
Feb 10
Waxing Gibbous
Feb 14
Full
Feb 22
Last Quarter
Mar 1
New
Mar 8
First Quarter

Hourly Weather History & Observations

Time (EST) Temp. Windchill Dew Point Humidity Pressure Visibility Wind Dir Wind Speed Gust Speed Precip Events Conditions
12:53 AM 17.1 °F 5.0 °F 10.0 °F 74% 30.21 in 5.0 mi West 10.4 mph - 0.00 in Snow Light Snow
1:19 AM 17.1 °F 5.0 °F 10.0 °F 74% 30.17 in 5.0 mi West 10.4 mph - 0.00 in Snow Light Snow
1:34 AM 17.1 °F 5.0 °F 10.0 °F 74% 30.17 in 6.0 mi West 10.4 mph - 0.00 in Snow Light Snow
1:53 AM 17.1 °F 4.3 °F 9.0 °F 71% 30.21 in 6.0 mi West 11.5 mph - 0.00 in Snow Light Snow
2:53 AM 16.0 °F 3.6 °F 9.0 °F 74% 30.22 in 5.0 mi West 10.4 mph - 0.00 in Snow Light Snow
3:45 AM 15.1 °F 4.2 °F 9.0 °F 77% 30.18 in 2.5 mi West 8.1 mph - 0.00 in Snow Light Snow
3:53 AM 15.1 °F 4.2 °F 9.0 °F 77% 30.22 in 4.0 mi West 8.1 mph - 0.00 in Snow Light Snow
4:53 AM 14.0 °F 2.9 °F 7.0 °F 74% 30.23 in 8.0 mi West 8.1 mph - 0.00 in   Overcast
5:53 AM 12.0 °F 1.5 °F 5.0 °F 73% 30.23 in 8.0 mi West 6.9 mph - N/A   Mostly Cloudy
6:34 AM 9.0 °F -0.9 °F 3.9 °F 80% 30.21 in 8.0 mi West 5.8 mph - N/A   Mostly Cloudy
6:48 AM 8.6 °F -1.3 °F 3.2 °F 79% 30.21 in 7.0 mi West 5.8 mph - N/A   Scattered Clouds
6:53 AM 8.1 °F -0.5 °F 3.0 °F 80% 30.26 in 7.0 mi West 4.6 mph - N/A   Partly Cloudy
7:35 AM 3.9 °F -8.2 °F 1.0 °F 88% 30.24 in 4.0 mi WSW 6.9 mph - N/A   Mostly Cloudy
7:53 AM 6.1 °F -4.3 °F 1.9 °F 83% 30.29 in 5.0 mi WSW 5.8 mph - N/A   Mostly Cloudy
8:09 AM 6.1 °F -4.3 °F 1.0 °F 80% 30.25 in 4.0 mi WSW 5.8 mph - N/A   Haze
8:42 AM 5.0 °F -8.1 °F 1.0 °F 84% 30.26 in 4.0 mi West 8.1 mph - N/A   Mostly Cloudy
8:53 AM 5.0 °F -8.1 °F 1.0 °F 84% 30.31 in 4.0 mi WSW 8.1 mph - N/A   Scattered Clouds
9:53 AM 9.0 °F -2.2 °F 3.0 °F 77% 30.33 in 5.0 mi West 6.9 mph - N/A   Haze
10:53 AM 14.0 °F - 7.0 °F 74% 30.33 in - Calm Calm - N/A   Unknown
11:37 AM 16.0 °F 10.4 °F 8.1 °F 71% 30.29 in 7.0 mi SW 3.5 mph - N/A   Mostly Cloudy
11:53 AM 17.1 °F 10.0 °F 9.0 °F 71% 30.34 in 7.0 mi SW 4.6 mph - N/A   Mostly Cloudy
12:33 PM 18.0 °F 9.8 °F 9.0 °F 68% 30.28 in 8.0 mi SW 5.8 mph - N/A   Scattered Clouds
12:53 PM 18.0 °F 12.7 °F 8.1 °F 65% 30.32 in 8.0 mi Variable 3.5 mph - N/A   Scattered Clouds
1:26 PM 19.0 °F 12.3 °F 8.1 °F 62% 30.26 in 8.0 mi West 4.6 mph - N/A   Mostly Cloudy
1:53 PM 21.0 °F 12.4 °F 9.0 °F 60% 30.30 in 9.0 mi West 6.9 mph - N/A   Mostly Cloudy
2:53 PM 21.0 °F 11.4 °F 9.0 °F 60% 30.30 in 9.0 mi WNW 8.1 mph - 0.00 in   Overcast
3:53 PM 19.0 °F 8.2 °F 8.1 °F 62% 30.32 in 8.0 mi SW 9.2 mph - N/A   Overcast
4:49 PM 17.6 °F 7.3 °F 6.8 °F 63% 30.29 in 9.0 mi West 8.1 mph - N/A   Overcast
4:53 PM 18.0 °F 5.4 °F 7.0 °F 62% 30.33 in 9.0 mi WSW 11.5 mph - N/A   Overcast
5:34 PM 17.1 °F 6.6 °F 6.1 °F 62% 30.29 in 9.0 mi WSW 8.1 mph - N/A   Mostly Cloudy
5:53 PM 14.0 °F 2.9 °F 3.9 °F 64% 30.35 in 10.0 mi WSW 8.1 mph - N/A   Mostly Cloudy
6:53 PM 10.9 °F -0.8 °F 1.9 °F 67% 30.37 in 9.0 mi WSW 8.1 mph - N/A   Clear
7:53 PM 10.9 °F -0.8 °F 1.9 °F 67% 30.38 in 9.0 mi WSW 8.1 mph - N/A   Mostly Cloudy
8:53 PM 12.9 °F 0.7 °F 3.0 °F 65% 30.38 in 9.0 mi WSW 9.2 mph - N/A   Overcast
9:53 PM 12.9 °F 1.6 °F 3.0 °F 65% 30.39 in 8.0 mi West 8.1 mph - N/A   Overcast
10:53 PM 9.0 °F -2.2 °F 1.0 °F 70% 30.40 in 7.0 mi West 6.9 mph - N/A   Scattered Clouds
11:53 PM 7.0 °F -4.5 °F -0.0 °F 73% 30.40 in 6.0 mi West 6.9 mph - N/A   Haze